Location: L�gaud
(45.7115°N, 1.7775°E)
Time: 19:06:32
(UTC+00:00)

Cosmos 1470 Rocket - Pass Details

Date: 03 March 2021
Orbit: 603 x 634 km, 82.5° (Epoch: 13 April)

Event Time Altitude Azimuth Distance (km) Brightness Sun altitude
Rises 18:34:38 0° 179° (S) 2,917 7.0 -9.9°
Reaches altitude 10° 18:36:53 10° 176° (S) 2,012 6.1 -10.3°
Maximum altitude 18:41:18 64° 95° (E) 702 3.6 -11.0°
Drops below altitude 10° 18:45:43 10° 15° (NNE) 2,015 6.1 -11.8°
Sets 18:47:58 0° 12° (NNE) 2,923 6.9 -12.2°
